Regional Weather Roundup
Issued by NWS

Home | Current Version | Previous Version | Text Only | Print | Product List | Glossary Off
Versions: 1 2 3 4 5 6 7 8 9 10 11 12 13 14 15 16 17 18 19 20 21 22 23 24 25 26 27 28 29 30 31 32 33 34 35 36 37 38 39 40 41 42 43 44 45 46 47 48 49 50

000
ASUS45 KABQ 240301
RWRNM
WEATHER ROUNDUP FOR NEW MEXICO
NATIONAL WEATHER SERVICE ALBUQUERQUE NM
900 PM MDT WED JUL 23 2014

NOTE: "FAIR" MEANS FEW OR NO CLOUDS BELOW 12,000 FEET AGL WITH NO
       SIGNIFICANT WEATHER OR OBSTRUCTIONS TO VISION.

      THIS PRODUCT IS RELEASED AS TWO VERSIONS.  ONE VERSION NEAR
      THE TOP OF THE HOUR CONTAINING PRELIMINARY DATA FROM ALBUQUERQUE
      AND OTHER STATIONS.  A FINAL VERSION WITH ADDITIONAL DATA IS
      ISSUED ABOUT 10 MINUTES AFTER THE HOUR.

NMZ501-503-504-510>518-240400-
NORTHWEST PLATEAU/NORTHCENTRAL MOUNTAINS

CITY           SKY/WX    TMP DP  RH WIND       PRES   REMARKS
FARMINGTON     CLEAR     84  49  29 S21G29    30.21R
LOS ALAMOS     PTCLDY    71  45  39 SW6       30.46R
SANTA FE       PTCLDY    69  54  58 E6        30.38R
TAOS           MOCLDY    66  52  59 E8        30.47R
ANGEL FIRE     FAIR      59  49  69 CALM      30.58R

$$
NMZ402-403-502-505>509-240400-
WESTCENTRAL MOUNTAINS/SOUTHWEST MOUNTAINS

CITY           SKY/WX    TMP DP  RH WIND       PRES   REMARKS
GALLUP         CLOUDY    68  57  68 SE3       30.35R
GRANTS         MOCLDY    75  51  41 S10       30.38R

$$
NMZ407-409-411-412-240400-
SOUTHERN DESERTS

CITY           SKY/WX    TMP DP  RH WIND       PRES   REMARKS
LORDSBURG      FAIR      84  45  24 SE7       30.15R
DEMING         CLEAR     85  44  23 SE7       30.16R
LAS CRUCES     CLEAR     86  43  22 E8        30.20R
HOLLOMAN AFB   PTCLDY    86  45  23 E8        30.16R
T OR C         LGT RAIN  81  54  39 N5        30.21S

$$
NMZ519>523-240400-
CENTRAL VALLEYS/CENTRAL HIGHLANDS

CITY           SKY/WX    TMP DP  RH WIND       PRES   REMARKS
ALBUQUERQUE    PTCLDY    80  57  45 N9        30.28R
DOUBLE EAGLE   MOCLDY    75  55  50 N7        30.32F
CLINES CORNERS PTCLDY    69  49  48 S7        30.44R
BELEN          FAIR      77  52  40 SW6       30.26S
SOCORRO        FAIR      81  46  29 W3        30.23R

$$
NMZ524>526-539-540-240400-
SOUTHCENTRAL MOUNTAINS

CITY           SKY/WX    TMP DP  RH WIND       PRES   REMARKS
RUIDOSO        NOT AVBL

$$
NMZ527>531-240400-
NORTHEAST HIGHLANDS/NORTHEAST PLAINS

CITY           SKY/WX    TMP DP  RH WIND       PRES   REMARKS
LAS VEGAS      MOCLDY    66  45  46 SE9       30.44R
RATON          NOT AVBL
CLAYTON        CLEAR     75  51  43 S9        30.29R

$$
NMZ532>537-240400-
EASTCENTRAL PLAINS

CITY           SKY/WX    TMP DP  RH WIND       PRES   REMARKS
TUCUMCARI      CLEAR     82  53  36 SW6       30.21R
CANNON AFB     CLEAR     77  60  55 E6        30.25R
CLOVIS AIRPORT NOT AVBL

$$
NMZ028-029-538-240400-
SOUTHEAST PLAINS

CITY           SKY/WX    TMP DP  RH WIND       PRES   REMARKS
ROSWELL        CLEAR     85  51  31 E7        30.16R
ARTESIA        CLEAR     90  48  24 E8        30.15R
CARLSBAD       CLEAR     88  44  21 SE6       30.12R
HOBBS          PTCLDY    86  52  30 E9        30.19R


$$



USA.gov is the U.S. government's official web portal to all federal, state and local government web resources and services.